| time (UTC) | temp C | wind direction | speed KPH | gust KPH | rain 1hr cm | rain 24hr cm | rain mn cm | humidity % | barometer mb |
| 20260505125022 | 18 | 265 | 16.1 | 29.0 | 0.00 | 0.05 | 0.03 | 86 | 1022.8 |
| 20260505124648 | 18 | 273 | 16.1 | 29.0 | 0.00 | 0.05 | 0.03 | 86 | 1022.8 |
| 20260505124017 | 18 | 267 | 12.9 | 24.1 | 0.00 | 0.05 | 0.03 | 87 | 1022.8 |
| 20260505123535 | 18 | 254 | 14.5 | 24.1 | 0.00 | 0.05 | 0.03 | 88 | 1022.9 |
| 20260505123147 | 18 | 261 | 14.5 | 20.9 | 0.00 | 0.05 | 0.03 | 88 | 1022.9 |
| 20260505122539 | 17 | 265 | 8.0 | 20.9 | 0.00 | 0.05 | 0.03 | 89 | 1022.8 |
| 20260505122036 | 17 | 241 | 8.0 | 24.1 | 0.00 | 0.05 | 0.03 | 89 | 1022.7 |
| 20260505121724 | 17 | 259 | 16.1 | 24.1 | 0.00 | 0.05 | 0.03 | 89 | 1022.7 |
| 20260505121019 | 17 | 257 | 16.1 | 27.4 | 0.00 | 0.05 | 0.03 | 90 | 1022.7 |
| 20260505120526 | 17 | 284 | 17.7 | 27.4 | 0.00 | 0.05 | 0.03 | 90 | 1022.5 |
| 20260505120227 | 16 | 261 | 14.5 | 22.5 | 0.00 | 0.05 | 0.03 | 91 | 1022.2 |
| 20260505115523 | 16 | 269 | 14.5 | 22.5 | 0.00 | 0.05 | 0.03 | 92 | 1022.1 |
| 20260505115036 | 16 | 273 | 14.5 | 22.5 | 0.00 | 0.05 | 0.03 | 92 | 1022.1 |
| 20260505114612 | 16 | 268 | 16.1 | 22.5 | 0.00 | 0.05 | 0.03 | 93 | 1022.1 |
| 20260505114027 | 15 | 270 | 12.9 | 22.5 | 0.00 | 0.05 | 0.03 | 92 | 1022.1 |
| 20260505113531 | 15 | 270 | 11.3 | 19.3 | 0.00 | 0.05 | 0.03 | 93 | 1022.1 |
| 20260505113156 | 15 | 259 | 11.3 | 19.3 | 0.00 | 0.05 | 0.03 | 93 | 1021.8 |
| 20260505112518 | 15 | 271 | 11.3 | 17.7 | 0.00 | 0.05 | 0.03 | 92 | 1021.9 |
| 20260505112040 | 15 | 265 | 11.3 | 17.7 | 0.00 | 0.05 | 0.03 | 92 | 1021.8 |
| 20260505111620 | 14 | 262 | 9.7 | 17.7 | 0.00 | 0.05 | 0.03 | 92 | 1021.9 |
| 20260505111037 | 15 | 261 | 9.7 | 17.7 | 0.00 | 0.05 | 0.03 | 93 | 1021.9 |
| 20260505110545 | 15 | 265 | 11.3 | 16.1 | 0.00 | 0.05 | 0.03 | 93 | 1021.9 |
| 20260505110153 | 15 | 257 | 8.0 | 16.1 | 0.00 | 0.05 | 0.03 | 92 | 1021.8 |
| 20260505102040 | 14 | 254 | 11.3 | 19.3 | 0.03 | 0.05 | 0.03 | 93 | 1021.1 |
| 20260505101705 | 14 | 259 | 12.9 | 20.9 | 0.03 | 0.05 | 0.03 | 93 | 1021.1 |
| 20260505101023 | 14 | 259 | 11.3 | 20.9 | 0.03 | 0.05 | 0.03 | 93 | 1021.2 |
| 20260505100525 | 14 | 295 | 11.3 | 19.3 | 0.03 | 0.05 | 0.03 | 93 | 1021.1 |
| 20260505100130 | 14 | 279 | 8.0 | 19.3 | 0.03 | 0.05 | 0.03 | 93 | 1021.0 |
| 20260505095539 | 14 | 257 | 11.3 | 19.3 | 0.03 | 0.05 | 0.03 | 93 | 1021.0 |
| 20260505095036 | 14 | 262 | 9.7 | 17.7 | 0.00 | 0.03 | 0.00 | 92 | 1021.0 |
| 20260505094618 | 14 | 259 | 9.7 | 20.9 | 0.00 | 0.03 | 0.00 | 92 | 1021.0 |
| 20260505094036 | 14 | 257 | 9.7 | 20.9 | 0.00 | 0.03 | 0.00 | 92 | 1020.8 |
| 20260505093544 | 14 | 270 | 9.7 | 17.7 | 0.00 | 0.03 | 0.00 | 92 | 1020.9 |
| 20260505093204 | 14 | 287 | 11.3 | 17.7 | 0.00 | 0.03 | 0.00 | 92 | 1020.8 |
| 20260505092532 | 14 | 261 | 11.3 | 20.9 | 0.00 | 0.03 | 0.00 | 92 | 1020.6 |
| 20260505092020 | 14 | 280 | 9.7 | 20.9 | 0.00 | 0.03 | 0.00 | 92 | 1020.5 |
| 20260505091641 | 14 | 261 | 11.3 | 20.9 | 0.00 | 0.03 | 0.00 | 92 | 1020.4 |
| 20260505091034 | 14 | 298 | 11.3 | 22.5 | 0.00 | 0.03 | 0.00 | 92 | 1020.5 |
| 20260505090515 | 14 | 281 | 9.7 | 22.5 | 0.00 | 0.03 | 0.00 | 92 | 1020.4 |
| 20260505090152 | 14 | 275 | 11.3 | 17.7 | 0.00 | 0.03 | 0.00 | 92 | 1020.3 |
| 20260505085544 | 14 | 271 | 9.7 | 17.7 | 0.00 | 0.03 | 0.00 | 92 | 1020.3 |
| 20260505085019 | 14 | 259 | 11.3 | 20.9 | 0.00 | 0.03 | 0.00 | 92 | 1020.1 |
| 20260505084650 | 14 | 261 | 11.3 | 22.5 | 0.00 | 0.03 | 0.00 | 92 | 1020.0 |
| 20260505084027 | 14 | 265 | 11.3 | 22.5 | 0.00 | 0.03 | 0.00 | 92 | 1020.0 |
| 20260505083524 | 14 | 261 | 12.9 | 17.7 | 0.00 | 0.03 | 0.00 | 92 | 1019.9 |
| 20260505083142 | 14 | 265 | 11.3 | 16.1 | 0.00 | 0.03 | 0.00 | 92 | 1020.0 |
| 20260505082522 | 14 | 259 | 6.4 | 14.5 | 0.00 | 0.03 | 0.00 | 91 | 1020.0 |
| 20260505082021 | 14 | 265 | 9.7 | 16.1 | 0.00 | 0.03 | 0.00 | 91 | 1020.0 |
| 20260505081648 | 14 | 261 | 6.4 | 16.1 | 0.00 | 0.03 | 0.00 | 91 | 1019.9 |
| 20260505081027 | 14 | 265 | 8.0 | 17.7 | 0.00 | 0.03 | 0.00 | 91 | 1020.0 |
| 20260505080532 | 14 | 265 | 9.7 | 17.7 | 0.00 | 0.03 | 0.00 | 91 | 1019.8 |
| 20260505080159 | 15 | 261 | 9.7 | 17.7 | 0.00 | 0.03 | 0.00 | 91 | 1019.8 |
| 20260505075709 | 15 | 261 | 11.3 | 19.3 | 0.00 | 0.03 | 0.00 | 91 | 1019.8 |
| 20260505075027 | 15 | 261 | 11.3 | 22.5 | 0.00 | 0.03 | 0.00 | 91 | 1019.9 |
| 20260505074700 | 15 | 259 | 14.5 | 22.5 | 0.00 | 0.03 | 0.00 | 91 | 1020.0 |
| 20260505074035 | 15 | 257 | 12.9 | 22.5 | 0.00 | 0.03 | 0.00 | 91 | 1020.1 |
| 20260505073546 | 15 | 265 | 11.3 | 22.5 | 0.00 | 0.03 | 0.00 | 91 | 1019.9 |
| 20260505073150 | 15 | 261 | 16.1 | 22.5 | 0.00 | 0.03 | 0.00 | 91 | 1020.0 |
| 20260505072542 | 15 | 262 | 14.5 | 22.5 | 0.00 | 0.03 | 0.00 | 91 | 1019.9 |
| 20260505072039 | 15 | 265 | 8.0 | 19.3 | 0.00 | 0.03 | 0.00 | 90 | 1020.0 |
| 20260505071658 | 15 | 261 | 12.9 | 19.3 | 0.00 | 0.03 | 0.00 | 91 | 1019.8 |
| 20260505071033 | 15 | 270 | 9.7 | 22.5 | 0.00 | 0.03 | 0.00 | 90 | 1019.6 |
| 20260505070521 | 15 | 262 | 14.5 | 22.5 | 0.00 | 0.03 | 0.00 | 91 | 1019.7 |
| 20260505070233 | 15 | 262 | 14.5 | 22.5 | 0.00 | 0.03 | 0.00 | 91 | 1019.6 |
| 20260505065520 | 15 | 282 | 14.5 | 19.3 | 0.00 | 0.03 | 0.00 | 91 | 1019.9 |
| 20260505065025 | 15 | 265 | 12.9 | 24.1 | 0.00 | 0.03 | 0.00 | 90 | 1019.7 |
| 20260505064723 | 15 | 265 | 14.5 | 24.1 | 0.00 | 0.03 | 0.00 | 90 | 1019.7 |
| 20260505064026 | 15 | 259 | 14.5 | 25.7 | 0.00 | 0.03 | 0.00 | 90 | 1019.7 |
| 20260505063532 | 15 | 282 | 16.1 | 27.4 | 0.00 | 0.03 | 0.00 | 90 | 1019.9 |
| 20260505063226 | 15 | 262 | 17.7 | 27.4 | 0.00 | 0.03 | 0.00 | 90 | 1020.1 |
| 20260505062535 | 15 | 265 | 12.9 | 27.4 | 0.00 | 0.03 | 0.00 | 90 | 1020.0 |
| 20260505062052 | 15 | 259 | 17.7 | 27.4 | 0.00 | 0.03 | 0.00 | 90 | 1020.0 |
| 20260505061638 | 15 | 265 | 16.1 | 29.0 | 0.00 | 0.03 | 0.00 | 90 | 1020.0 |
| 20260505061035 | 15 | 262 | 19.3 | 29.0 | 0.00 | 0.03 | 0.00 | 90 | 1019.9 |
| 20260505060520 | 15 | 259 | 20.9 | 27.4 | 0.00 | 0.03 | 0.00 | 90 | 1020.0 |
| 20260505060224 | 15 | 265 | 17.7 | 30.6 | 0.00 | 0.03 | 0.00 | 90 | 1020.0 |
| 20260505055538 | 15 | 268 | 20.9 | 29.0 | 0.00 | 0.03 | 0.00 | 90 | 1020.0 |
| 20260505055046 | 15 | 263 | 17.7 | 27.4 | 0.00 | 0.03 | 0.00 | 90 | 1020.0 |
| 20260505054701 | 15 | 261 | 19.3 | 25.7 | 0.00 | 0.03 | 0.00 | 90 | 1020.0 |
| 20260505054033 | 15 | 259 | 17.7 | 27.4 | 0.00 | 0.03 | 0.00 | 90 | 1020.1 |
| 20260505053529 | 15 | 257 | 20.9 | 27.4 | 0.00 | 0.03 | 0.00 | 90 | 1020.2 |
| 20260505053142 | 15 | 262 | 19.3 | 25.7 | 0.00 | 0.03 | 0.00 | 90 | 1020.3 |
| 20260505052539 | 15 | 261 | 16.1 | 27.4 | 0.00 | 0.03 | 0.00 | 90 | 1020.3 |
| 20260505052036 | 15 | 261 | 19.3 | 27.4 | 0.00 | 0.03 | 0.00 | 91 | 1020.2 |
| 20260505051719 | 15 | 261 | 19.3 | 25.7 | 0.00 | 0.03 | 0.00 | 91 | 1020.1 |
| 20260505051026 | 15 | 257 | 16.1 | 22.5 | 0.00 | 0.03 | 0.00 | 91 | 1020.2 |
| 20260505050539 | 15 | 261 | 17.7 | 22.5 | 0.00 | 0.03 | 0.00 | 91 | 1020.2 |
| 20260505050156 | 15 | 259 | 16.1 | 22.5 | 0.00 | 0.03 | 0.00 | 91 | 1020.2 |
| 20260505041701 | 15 | 265 | 12.9 | 17.7 | 0.00 | 0.03 | 0.00 | 90 | 1020.2 |
| 20260505041025 | 15 | 261 | 11.3 | 17.7 | 0.00 | 0.03 | 0.00 | 90 | 1020.3 |
| 20260505040525 | 15 | 265 | 11.3 | 17.7 | 0.00 | 0.03 | 0.00 | 90 | 1020.4 |
| 20260505040209 | 15 | 259 | 8.0 | 30.6 | 0.00 | 0.03 | 0.00 | 90 | 1020.3 |
| 20260505035526 | 15 | 291 | 3.2 | 30.6 | 0.00 | 0.05 | 0.00 | 90 | 1020.5 |
| 20260505035041 | 15 | 255 | 29.0 | 30.6 | 0.00 | 0.05 | 0.00 | 90 | 1020.3 |
| 20260505034701 | 15 | 255 | 29.0 | 30.6 | 0.00 | 0.05 | 0.00 | 90 | 1020.3 |
| 20260505034042 | 15 | 255 | 29.0 | 30.6 | 0.00 | 0.05 | 0.00 | 90 | 1020.3 |
| 20260505033536 | 15 | 255 | 29.0 | 30.6 | 0.00 | 0.05 | 0.00 | 90 | 1020.3 |
| 20260505033151 | 15 | 255 | 29.0 | 30.6 | 0.00 | 0.05 | 0.00 | 90 | 1020.2 |
| 20260505032537 | 15 | 255 | 29.0 | 30.6 | 0.00 | 0.05 | 0.00 | 90 | 1020.3 |
| 20260505032045 | 15 | 255 | 29.0 | 30.6 | 0.00 | 0.05 | 0.00 | 90 | 1020.3 |
| 20260505031653 | 15 | 255 | 29.0 | 30.6 | 0.00 | 0.05 | 0.00 | 90 | 1020.2 |
| 20260505031041 | 15 | 255 | 29.0 | 30.6 | 0.00 | 0.05 | 0.00 | 90 | 1020.3 |
| 20260505030547 | 15 | 255 | 29.0 | 30.6 | 0.00 | 0.05 | 0.00 | 91 | 1020.3 |
| 20260505030146 | 15 | 255 | 29.0 | 30.6 | 0.00 | 0.05 | 0.00 | 91 | 1020.4 |
| 20260505025540 | 15 | 255 | 29.0 | 30.6 | 0.00 | 0.05 | 0.05 | 91 | 1020.3 |
| 20260505025038 | 15 | 255 | 29.0 | 30.6 | 0.00 | 0.05 | 0.05 | 91 | 1020.4 |
| 20260505024637 | 15 | 255 | 29.0 | 30.6 | 0.00 | 0.05 | 0.05 | 91 | 1020.5 |
| 20260505024031 | 15 | 255 | 29.0 | 30.6 | 0.00 | 0.05 | 0.05 | 91 | 1020.4 |
| 20260505023542 | 15 | 255 | 29.0 | 30.6 | 0.00 | 0.05 | 0.05 | 91 | 1020.5 |
| 20260505023138 | 15 | 255 | 29.0 | 30.6 | 0.00 | 0.05 | 0.05 | 91 | 1020.6 |
| 20260505022549 | 15 | 255 | 29.0 | 30.6 | 0.00 | 0.05 | 0.05 | 91 | 1020.5 |
| 20260505022038 | 14 | 255 | 29.0 | 30.6 | 0.00 | 0.05 | 0.05 | 91 | 1020.6 |
| 20260505021639 | 14 | 255 | 29.0 | 30.6 | 0.00 | 0.05 | 0.05 | 91 | 1020.5 |
| 20260505021031 | 14 | 255 | 29.0 | 30.6 | 0.00 | 0.05 | 0.05 | 91 | 1020.6 |
| 20260505020536 | 14 | 255 | 29.0 | 30.6 | 0.00 | 0.05 | 0.05 | 91 | 1020.6 |
| 20260505020139 | 14 | 255 | 29.0 | 30.6 | 0.00 | 0.05 | 0.05 | 91 | 1020.7 |
| 20260505015540 | 14 | 255 | 29.0 | 30.6 | 0.00 | 0.05 | 0.05 | 91 | 1020.5 |
| 20260505015024 | 14 | 255 | 29.0 | 30.6 | 0.00 | 0.05 | 0.05 | 91 | 1020.4 |
| 20260505014646 | 14 | 255 | 29.0 | 30.6 | 0.00 | 0.05 | 0.05 | 91 | 1020.3 |
| 20260505014046 | 14 | 255 | 29.0 | 30.6 | 0.00 | 0.05 | 0.05 | 91 | 1020.3 |
| 20260505013518 | 14 | 255 | 29.0 | 30.6 | 0.00 | 0.05 | 0.05 | 91 | 1020.2 |
| 20260505013150 | 15 | 255 | 29.0 | 30.6 | 0.00 | 0.05 | 0.05 | 91 | 1020.5 |
| 20260505012535 | 15 | 255 | 29.0 | 30.6 | 0.00 | 0.05 | 0.05 | 91 | 1020.3 |
| 20260505012026 | 15 | 255 | 29.0 | 30.6 | 0.00 | 0.05 | 0.05 | 91 | 1020.4 |
| 20260505011643 | 15 | 255 | 29.0 | 48.3 | 0.00 | 0.05 | 0.05 | 90 | 1020.7 |
| 20260505011028 | 15 | 255 | 29.0 | 48.3 | 0.00 | 0.05 | 0.05 | 91 | 1020.5 |
| 20260505010521 | 15 | 279 | 19.3 | 30.6 | 0.00 | 0.05 | 0.05 | 90 | 1020.4 |
| 20260505010158 | 15 | 261 | 12.9 | 20.9 | 0.00 | 0.05 | 0.05 | 90 | 1020.3 |
| 20260505005533 | 15 | 262 | 14.5 | 22.5 | 0.00 | 0.05 | 0.05 | 90 | 1020.4 |
| 20260505005039 | 15 | 261 | 14.5 | 22.5 | 0.00 | 0.05 | 0.05 | 90 | 1020.4 |
| 20260505004640 | 15 | 262 | 12.9 | 24.1 | 0.00 | 0.05 | 0.05 | 90 | 1020.2 |
| 20260505004031 | 15 | 265 | 14.5 | 25.7 | 0.00 | 0.05 | 0.05 | 90 | 1020.0 |
| 20260505003525 | 15 | 265 | 16.1 | 25.7 | 0.00 | 0.05 | 0.05 | 90 | 1020.1 |
| 20260505003147 | 15 | 265 | 16.1 | 24.1 | 0.00 | 0.05 | 0.05 | 90 | 1020.0 |
| 20260505002518 | 15 | 262 | 14.5 | 20.9 | 0.00 | 0.05 | 0.05 | 90 | 1020.0 |
| 20260505002031 | 15 | 262 | 12.9 | 25.7 | 0.00 | 0.05 | 0.05 | 90 | 1019.9 |
| 20260505001609 | 15 | 279 | 14.5 | 25.7 | 0.00 | 0.05 | 0.05 | 90 | 1019.7 |
| 20260505001029 | 15 | 261 | 17.7 | 25.7 | 0.00 | 0.05 | 0.05 | 91 | 1019.6 |
| 20260505000526 | 15 | 262 | 12.9 | 27.4 | 0.00 | 0.05 | 0.05 | 91 | 1019.7 |
| 20260505000155 | 15 | 259 | 17.7 | 27.4 | 0.00 | 0.05 | 0.05 | 90 | 1019.7 |
| 20260504235520 | 15 | 261 | 12.9 | 24.1 | 0.00 | 0.05 | 0.05 | 90 | 1019.5 |
| 20260504235026 | 15 | 298 | 12.9 | 27.4 | 0.00 | 0.05 | 0.05 | 91 | 1019.6 |
| 20260504234642 | 15 | 273 | 17.7 | 29.0 | 0.00 | 0.05 | 0.05 | 91 | 1019.7 |
| 20260504234035 | 15 | 261 | 16.1 | 29.0 | 0.00 | 0.05 | 0.05 | 90 | 1019.6 |
| 20260504233523 | 15 | 257 | 17.7 | 32.2 | 0.00 | 0.05 | 0.05 | 90 | 1019.6 |
| 20260504233154 | 15 | 261 | 20.9 | 32.2 | 0.00 | 0.05 | 0.05 | 90 | 1019.5 |
| 20260504232532 | 15 | 261 | 20.9 | 30.6 | 0.00 | 0.05 | 0.05 | 91 | 1019.5 |
| 20260504232050 | 15 | 259 | 17.7 | 30.6 | 0.00 | 0.05 | 0.05 | 91 | 1019.5 |
| 20260504231703 | 15 | 269 | 19.3 | 27.4 | 0.00 | 0.05 | 0.05 | 90 | 1019.6 |
| 20260504231039 | 15 | 257 | 19.3 | 25.7 | 0.00 | 0.05 | 0.05 | 91 | 1019.7 |
| 20260504230524 | 15 | 255 | 16.1 | 29.0 | 0.00 | 0.05 | 0.05 | 91 | 1019.6 |
| 20260504230204 | 15 | 261 | 19.3 | 29.0 | 0.00 | 0.05 | 0.05 | 91 | 1019.6 |
| 20260504225532 | 15 | 279 | 16.1 | 29.0 | 0.00 | 0.05 | 0.05 | 91 | 1019.5 |
| 20260504225024 | 15 | 289 | 17.7 | 29.0 | 0.00 | 0.05 | 0.05 | 91 | 1019.3 |
| 20260504224654 | 15 | 271 | 14.5 | 30.6 | 0.00 | 0.05 | 0.05 | 90 | 1019.4 |
| 20260504224041 | 15 | 261 | 19.3 | 32.2 | 0.00 | 0.05 | 0.05 | 90 | 1019.3 |
| 20260504223544 | 15 | 265 | 24.1 | 32.2 | 0.00 | 0.05 | 0.05 | 90 | 1019.4 |
| 20260504223147 | 15 | 259 | 16.1 | 24.1 | 0.03 | 0.05 | 0.05 | 90 | 1019.4 |
| 20260504222533 | 15 | 273 | 14.5 | 22.5 | 0.03 | 0.05 | 0.05 | 90 | 1019.3 |
| 20260504222024 | 15 | 261 | 14.5 | 22.5 | 0.03 | 0.05 | 0.05 | 90 | 1019.2 |
| 20260504221702 | 15 | 259 | 14.5 | 20.9 | 0.03 | 0.05 | 0.05 | 90 | 1019.1 |
| 20260504221022 | 15 | 259 | 14.5 | 24.1 | 0.03 | 0.05 | 0.05 | 90 | 1019.1 |
| 20260504220532 | 15 | 277 | 14.5 | 25.7 | 0.03 | 0.05 | 0.05 | 90 | 1019.1 |
| 20260504220215 | 15 | 268 | 14.5 | 29.0 | 0.03 | 0.05 | 0.05 | 90 | 1018.9 |
| 20260504215523 | 15 | 265 | 16.1 | 29.0 | 0.03 | 0.05 | 0.05 | 90 | 1018.8 |
| 20260504215046 | 15 | 259 | 19.3 | 29.0 | 0.03 | 0.05 | 0.05 | 90 | 1018.9 |
| 20260504214710 | 15 | 261 | 16.1 | 25.7 | 0.03 | 0.05 | 0.05 | 90 | 1018.8 |
| 20260504214041 | 15 | 292 | 17.7 | 29.0 | 0.03 | 0.05 | 0.05 | 90 | 1018.5 |
| 20260504213521 | 15 | 273 | 19.3 | 29.0 | 0.03 | 0.05 | 0.05 | 90 | 1018.5 |
| 20260504213153 | 15 | 261 | 16.1 | 24.1 | 0.00 | 0.03 | 0.03 | 90 | 1018.6 |
| 20260504212544 | 15 | 259 | 14.5 | 25.7 | 0.00 | 0.03 | 0.03 | 89 | 1018.6 |
| 20260504212046 | 15 | 262 | 16.1 | 25.7 | 0.00 | 0.03 | 0.03 | 89 | 1018.7 |
| 20260504211654 | 15 | 265 | 19.3 | 30.6 | 0.00 | 0.03 | 0.03 | 89 | 1018.8 |
| 20260504211039 | 15 | 277 | 19.3 | 30.6 | 0.00 | 0.03 | 0.03 | 89 | 1018.7 |
| 20260504210540 | 15 | 259 | 16.1 | 27.4 | 0.00 | 0.03 | 0.03 | 89 | 1018.8 |
| 20260504210222 | 15 | 257 | 16.1 | 38.6 | 0.00 | 0.03 | 0.03 | 88 | 1018.7 |
| 20260504205532 | 15 | 259 | 20.9 | 48.3 | 0.00 | 0.03 | 0.03 | 88 | 1018.7 |
| 20260504205035 | 15 | 257 | 24.1 | 51.5 | 0.00 | 0.03 | 0.03 | 88 | 1018.5 |
| 20260504204641 | 15 | 259 | 32.2 | 48.3 | 0.00 | 0.03 | 0.03 | 88 | 1018.3 |
| 20260504204032 | 15 | 259 | 16.1 | 37.0 | 0.00 | 0.03 | 0.03 | 88 | 1018.1 |
| 20260504203530 | 15 | 268 | 20.9 | 41.8 | 0.00 | 0.03 | 0.03 | 88 | 1018.3 |
| 20260504203207 | 16 | 261 | 30.6 | 41.8 | 0.00 | 0.03 | 0.03 | 87 | 1018.1 |
| 20260504202541 | 16 | 261 | 24.1 | 37.0 | 0.00 | 0.03 | 0.03 | 87 | 1018.2 |
| 20260504202036 | 16 | 262 | 16.1 | 24.1 | 0.00 | 0.03 | 0.03 | 87 | 1018.3 |
| 20260504201705 | 16 | 259 | 11.3 | 27.4 | 0.00 | 0.03 | 0.03 | 87 | 1018.1 |
| 20260504201037 | 16 | 262 | 14.5 | 27.4 | 0.00 | 0.03 | 0.03 | 87 | 1018.3 |
| 20260504200531 | 16 | 262 | 12.9 | 19.3 | 0.00 | 0.03 | 0.03 | 87 | 1018.3 |
| 20260504200224 | 16 | 262 | 11.3 | 19.3 | 0.00 | 0.03 | 0.03 | 87 | 1018.1 |
| 20260504195529 | 16 | 261 | 11.3 | 22.5 | 0.00 | 0.03 | 0.03 | 87 | 1017.9 |
| 20260504195042 | 16 | 277 | 11.3 | 22.5 | 0.00 | 0.03 | 0.03 | 87 | 1018.2 |
| 20260504194707 | 16 | 262 | 14.5 | 20.9 | 0.00 | 0.03 | 0.03 | 87 | 1018.5 |
| 20260504194025 | 16 | 259 | 14.5 | 24.1 | 0.00 | 0.03 | 0.03 | 87 | 1018.3 |
| 20260504193542 | 16 | 275 | 16.1 | 24.1 | 0.00 | 0.03 | 0.03 | 87 | 1018.4 |
| 20260504193207 | 16 | 262 | 14.5 | 22.5 | 0.00 | 0.03 | 0.03 | 86 | 1018.4 |
| 20260504192537 | 16 | 266 | 12.9 | 27.4 | 0.00 | 0.03 | 0.03 | 86 | 1017.9 |
| 20260504192046 | 16 | 275 | 12.9 | 29.0 | 0.00 | 0.03 | 0.03 | 86 | 1017.8 |
| 20260504191701 | 16 | 267 | 16.1 | 32.2 | 0.00 | 0.03 | 0.03 | 86 | 1018.1 |
| 20260504191031 | 17 | 265 | 22.5 | 32.2 | 0.00 | 0.03 | 0.03 | 85 | 1018.2 |
| 20260504190525 | 17 | 261 | 22.5 | 30.6 | 0.00 | 0.03 | 0.03 | 85 | 1018.3 |
| 20260504190215 | 17 | 270 | 20.9 | 29.0 | 0.00 | 0.03 | 0.03 | 85 | 1018.2 |
| 20260504185549 | 17 | 269 | 16.1 | 22.5 | 0.00 | 0.03 | 0.03 | 85 | 1018.2 |
| 20260504185034 | 17 | 268 | 9.7 | 20.9 | 0.00 | 0.03 | 0.03 | 85 | 1017.9 |
| 20260504184715 | 17 | 265 | 12.9 | 22.5 | 0.00 | 0.03 | 0.03 | 85 | 1017.9 |
| 20260504184045 | 17 | 261 | 14.5 | 22.5 | 0.00 | 0.03 | 0.03 | 84 | 1018.1 |
| 20260504183520 | 17 | 262 | 12.9 | 22.5 | 0.00 | 0.03 | 0.03 | 84 | 1018.0 |
| 20260504183118 | 17 | 261 | 16.1 | 27.4 | 0.00 | 0.03 | 0.03 | 84 | 1018.2 |
| 20260504182538 | 17 | 269 | 16.1 | 27.4 | 0.00 | 0.03 | 0.03 | 83 | 1018.3 |
| 20260504182038 | 18 | 269 | 17.7 | 29.0 | 0.00 | 0.03 | 0.03 | 83 | 1018.1 |
| 20260504181711 | 18 | 282 | 16.1 | 29.0 | 0.00 | 0.03 | 0.03 | 82 | 1018.0 |
| 20260504181048 | 18 | 273 | 16.1 | 30.6 | 0.00 | 0.03 | 0.03 | 83 | 1018.0 |
| 20260504180535 | 18 | 259 | 20.9 | 32.2 | 0.00 | 0.03 | 0.03 | 83 | 1018.3 |
| 20260504180209 | 18 | 263 | 20.9 | 32.2 | 0.00 | 0.03 | 0.03 | 82 | 1018.2 |
| 20260504175528 | 18 | 259 | 22.5 | 32.2 | 0.00 | 0.03 | 0.03 | 81 | 1018.2 |
| 20260504175044 | 18 | 259 | 16.1 | 25.7 | 0.00 | 0.03 | 0.03 | 82 | 1018.1 |
| 20260504174704 | 18 | 262 | 12.9 | 29.0 | 0.00 | 0.03 | 0.03 | 82 | 1018.2 |
| 20260504174047 | 18 | 261 | 16.1 | 29.0 | 0.00 | 0.03 | 0.03 | 81 | 1018.1 |
| 20260504173523 | 18 | 261 | 14.5 | 32.2 | 0.00 | 0.03 | 0.03 | 82 | 1018.2 |
| 20260504173123 | 18 | 259 | 16.1 | 32.2 | 0.00 | 0.03 | 0.03 | 83 | 1018.2 |
| 20260504172530 | 17 | 262 | 17.7 | 30.6 | 0.00 | 0.03 | 0.03 | 83 | 1018.3 |
| 20260504172020 | 17 | 271 | 20.9 | 30.6 | 0.00 | 0.03 | 0.03 | 82 | 1018.5 |
| 20260504171650 | 17 | 263 | 19.3 | 29.0 | 0.00 | 0.03 | 0.03 | 83 | 1018.5 |
| 20260504171034 | 17 | 265 | 16.1 | 30.6 | 0.00 | 0.03 | 0.03 | 83 | 1018.5 |
| 20260504170537 | 17 | 268 | 20.9 | 30.6 | 0.00 | 0.03 | 0.03 | 83 | 1018.6 |
| 20260504170134 | 17 | 286 | 17.7 | 25.7 | 0.00 | 0.03 | 0.03 | 83 | 1018.6 |
| 20260504160208 | 17 | 273 | 17.7 | 30.6 | 0.00 | 0.05 | 0.03 | 82 | 1019.3 |
| 20260504151036 | 18 | 262 | 19.3 | 29.0 | 0.00 | 0.05 | 0.03 | 81 | 1019.9 |
| 20260504150544 | 18 | 284 | 14.5 | 33.8 | 0.00 | 0.05 | 0.03 | 80 | 1019.7 |
| 20260504150201 | 18 | 263 | 25.7 | 33.8 | 0.00 | 0.05 | 0.03 | 78 | 1019.9 |
| 20260504141044 | 18 | 265 | 17.7 | 29.0 | 0.00 | 0.05 | 0.03 | 80 | 1019.9 |
| 20260504140538 | 18 | 268 | 20.9 | 29.0 | 0.00 | 0.05 | 0.03 | 80 | 1019.8 |
| 20260504140223 | 17 | 261 | 17.7 | 25.7 | 0.00 | 0.05 | 0.03 | 81 | 1020.0 |
| 20260504130543 | 15 | 265 | 6.4 | 14.5 | 0.00 | 0.05 | 0.03 | 85 | 1020.0 |
| 20260504130145 | 15 | 286 | 6.4 | 19.3 | 0.00 | 0.05 | 0.03 | 87 | 1020.0 |